Tracking 20721 objects as of 31-May-2020
HD Live streaming from Space Station
objects crossing your sky now
Track the CREW DRAGON and SPACE STATION

FENGYUN 1C DEB


FENGYUN 1C DEB is no longer on orbit


NORAD ID: 35157
Int'l Code: 1999-025DMM
Perigee: N/A
Apogee: N/A
Inclination: N/A
Period: N/A
Semi major axis: N/A
RCS: N/A
Launch date: May 10, 1999
Source: People's Republic of China (PRC)
Launch site: Taiyaun Space Center, China (TSC)
Decay date: 2013-03-09

Note: This is SATELLITE DEBRIS
aabbcc
Your satellite tracking list
Your tracking list is empty




NASA's NSSDC Master Catalog

Two Line Element Set (TLE):
1 35157U 99025DMM 12167.45223709  .00097375  00000-0  89026-2 0  9993
2 35157 097.1334 241.4980 0168651 291.8451 057.7533 14.84335608253883
Source of the keplerian elements: AFSPC